CZ-6A R/B, 62237

Orbit data source: Space-Track

CZ-6A R/B, 62237 is space debris in LEO originally from a launch on Thu, 05 Dec 2024 UTC launched from the Taiyaun Space Center, China (TSC). Debris objects in space refer to the collection of defunct objects orbiting the Earth. Examples of debris include non-operational satellites, rocket bodies, and fragments generated from explosions, collisions, or faulty payload assembly.

Loading next visibility...
Identifier
62237, 2024-232A
Orbit
LEO
Country
Flag of CNCN / PRC
Related business
Manufacturer
SAST
Mission
Spacecraft
Bus & Motor
CZ-6A STAGE 2, YF-115
Mass
~6,000 kg wet, ~6,000 kg dry
Launch date (UTC)
2024-12-05 (1 year ago)
Launch vehicle
Unknown
Launch site
Taiyaun Space Center, China (TSC)
Object type
Payload
Rocket body
Debris
Shape & HBR
Unknown shape, 5.5 m
Radar Cross Section
Large (>1 m²)

Expand to show TLE details & history
Last TLE update: 4 hours ago

TLE from 4 hours ago
0 CZ-6A R/B
1 62237U 24232A   26035.19063604  .00000311  00000-0  67913-4 0  9993
2 62237  89.0299  30.5066 0100704  97.6797 263.5861 14.51797567110124
Epoch: 2026-02-04T04:34Z
TLE epoch observation values (Epoch: 2026-02-04T04:34:30.953Z)
Latitude
-0.00005°
Longitude
-172.48314°
Altitude
731.579 km
Speed
7.485 km/s
True Right ascension
02h 02m 01s
True Declination
0° 00' 00"
Sunlit
Object was in daylight at epoch
Visualization orbit readout
Latitude
Unknown
Longitude
Unknown
Altitude
Unknown
Speed
Unknown
Apparent Right ascension
Unknown
Apparent Declination
Unknown
Sunlit
N/A
Visualization observer readout
Local Sidereal Time
10:44:13
Azimuth
Unknown
Elevation
Unknown
Doppler factor
Unknown
Orbital elements
Apogee altitude
788.136 km
Perigee altitude
645.241 km
Semi-major axis
7,094.826 km
Eccentricity
0.01007
Inclination
89.0299°
RAAN
30.5066°
Arg. of periapsis
97.6797°
True anomaly
262.44103°
Mean anomaly
263.5861°
Eccentric anomaly
263.01339°
Mean motion
3.63187 °/min
Orbital period
99.12 mins
BSTAR
0.000067913
Loading maneuver chart data...
Computing Atmospheric mass density...
Loading historical data...
Loading historical data...
Loading historical data...
Loading historical data...
Loading historical data...
Loading historical data...
Loading historical data...

Documentation

Showing up to 5 results
|